Location: Cochran
(32.3868°N, 83.3546°W)
Time: 12:29:33
(UTC+00:00)

USA 229 DEB - Pass Details

Date: 18 February 2020
Orbit: 988 x 1224 km, 63.4° (Epoch: 26 March)

Event Time Altitude Azimuth Distance (km) Brightness Sun altitude
Rises 23:43:39 0° 198° (SSW) 3,681 6.9 -5.4°
Reaches altitude 10° 23:46:13 10° 195° (SSW) 2,740 6.2 -5.9°
Maximum altitude 23:52:31 63° 116° (ESE) 1,116 3.6 -7.2°
Drops below altitude 10° 23:59:06 10° 37° (NE) 2,849 5.5 -8.6°
Sets 00:01:48 0° 34° (NE) 3,837 6.2 -9.2°
